Homer, AK

3:04 AM AKDT on September 21, 2017 (GMT -0800)
Homer

Weather History for PAHO - January, 2014

Change the Weather History Date:

Sunday, January 12, 2014

  Actual Average Record
Temperature  
Mean Temperature 26 °F -  
Max Temperature 28 °F 25 °F 51 °F (2015)
Min Temperature 23 °F 13 °F -13 °F (1980)
Degree Days  
Heating Degree Days 39    
Moisture  
Dew Point 22 °F    
Average Humidity 81    
Maximum Humidity 88    
Minimum Humidity 69    
Precipitation  
Precipitation 0.28 in - - ()
Sea Level Pressure  
Sea Level Pressure 29.17 in    
Wind  
Wind Speed 2 mph (NE)    
Max Wind Speed 9 mph    
Max Gust Speed -    
Visibility 4 miles    
Events Fog , Snow    
Averages and records for this station are not official NWS values.
T = Trace of Precipitation, MM = Missing Value Source: NWS Daily Summary

Daily Weather History Graph

Daily Weather History Graph

Search for Another Location

Airport or City:

Trip Planner

Search our weather history database for the weather conditions in past years. The results will help you decide how hot, cold, wet, or windy it might be!

Date:

Astronomy

Jan. 12, 2014 Rise Set
Actual Time 9:54 AM AKST 4:34 PM AKST
Civil Twilight 9:01 AM AKST 5:27 PM AKST
Nautical Twilight 8:08 AM AKST 6:21 PM AKST
Astronomical Twilight 7:18 AM AKST 7:10 PM AKST
Moon 2:16 PM AKST (1/12) 6:55 AM AKST (1/12)
Length of Visible Light 8h 25m
Length of Day
6h 39m
Waxing Gibbous, 90% of the Moon is Illuminated
Jan 12
Waxing Gibbous
Jan 15
Full
Jan 23
Last Quarter
Jan 30
New
Feb 6
First Quarter

Hourly Weather History & Observations

Time (AKST) Temp. Windchill Dew Point Humidity Pressure Visibility Wind Dir Wind Speed Gust Speed Precip Events Conditions
12:53 AM 25.0 °F 20.7 °F 17.1 °F 72% 29.06 in 10.0 mi NW 3.5 mph - N/A   Overcast
1:53 AM 26.1 °F - 17.1 °F 69% 29.04 in 10.0 mi Calm Calm - N/A   Overcast
3:53 AM 27.0 °F 23.0 °F 18.0 °F 69% 29.04 in 10.0 mi WNW 3.5 mph - N/A   Overcast
4:53 AM 27.0 °F - 19.0 °F 72% 29.04 in 10.0 mi Calm Calm - N/A   Overcast
5:53 AM 27.0 °F 23.0 °F 19.0 °F 72% 29.03 in 10.0 mi NW 3.5 mph - N/A   Overcast
6:53 AM 25.0 °F - 19.0 °F 78% 29.04 in 10.0 mi Calm Calm - N/A   Overcast
7:41 AM 26.6 °F - 17.6 °F 69% 29.04 in 10.0 mi Calm Calm - N/A   Overcast
7:53 AM 26.1 °F 21.9 °F 18.0 °F 71% 29.05 in 5.0 mi WNW 3.5 mph - 0.00 in Snow Light Snow
8:00 AM 26.6 °F - 17.6 °F 69% 29.05 in 1.8 mi Calm Calm - 0.00 in Snow Light Snow
8:20 AM 24.8 °F - 19.4 °F 80% 29.07 in 1.5 mi Calm Calm - 0.01 in Snow Light Snow
8:49 AM 24.8 °F 20.5 °F 19.4 °F 80% 29.07 in 0.8 mi NE 3.5 mph - 0.03 in Snow Light Snow
8:53 AM 24.1 °F 18.2 °F 19.0 °F 81% 29.07 in 1.0 mi ENE 4.6 mph - 0.03 in Snow Light Snow
9:17 AM 24.8 °F 19.1 °F 21.2 °F 86% 29.07 in 0.5 mi ENE 4.6 mph - 0.04 in Fog , Snow Snow
9:30 AM 26.6 °F 20.0 °F 21.2 °F 80% 29.08 in 0.2 mi East 5.8 mph - 0.07 in Fog , Snow Heavy Snow
9:48 AM 24.8 °F 15.3 °F 19.4 °F 80% 29.09 in 0.5 mi ENE 9.2 mph - 0.10 in Snow Snow
9:53 AM 25.0 °F 16.3 °F 19.9 °F 81% 29.10 in 0.5 mi NE 8.1 mph - 0.10 in Snow Snow
10:28 AM 24.8 °F 15.3 °F 19.4 °F 80% 29.10 in 0.8 mi NE 9.2 mph - 0.05 in Snow Light Snow
10:51 AM 24.8 °F 16.9 °F 19.4 °F 80% 29.10 in 1.0 mi NE 6.9 mph - 0.06 in Snow Light Snow
10:52 AM 25.0 °F 16.3 °F 19.9 °F 81% 29.11 in 1.0 mi NE 8.1 mph - 0.06 in Snow Light Snow
11:06 AM 24.8 °F 19.1 °F 21.2 °F 86% 29.11 in 0.8 mi NE 4.6 mph - 0.01 in Snow Light Snow
11:27 AM 26.6 °F 20.0 °F 21.2 °F 80% 29.11 in 1.0 mi ENE 5.8 mph - 0.01 in Snow Light Snow
11:49 AM 26.6 °F - 21.2 °F 80% 29.12 in 0.5 mi Calm Calm - 0.02 in Snow Snow
11:50 AM 27.0 °F - 21.0 °F 78% 29.12 in 0.5 mi Calm Calm - 0.02 in Snow Snow
12:07 PM 26.6 °F - 21.2 °F 80% 29.12 in 0.2 mi Calm Calm - 0.02 in Snow Heavy Snow
12:11 PM 26.6 °F - 21.2 °F 80% 29.12 in 1.0 mi Calm Calm - 0.02 in Snow Light Snow
12:20 PM 26.6 °F - 21.2 °F 80% 29.12 in 2.0 mi Calm Calm - 0.02 in Snow Light Snow
12:53 PM 27.0 °F - 21.9 °F 81% 29.13 in 1.0 mi Calm Calm - 0.03 in Snow Light Snow
1:32 PM 28.4 °F - 23.0 °F 80% 29.13 in 7.0 mi Calm Calm - 0.01 in Snow Light Snow
1:50 PM 26.6 °F - 21.2 °F 80% 29.14 in 7.0 mi Calm Calm - 0.01 in   Mostly Cloudy
1:53 PM 28.0 °F - 21.9 °F 78% 29.14 in 7.0 mi Calm Calm - 0.01 in   Mostly Cloudy
2:02 PM 26.6 °F - 21.2 °F 80% 29.14 in 7.0 mi Calm Calm - N/A   Mostly Cloudy
2:53 PM 27.0 °F 23.0 °F 21.9 °F 81% 29.16 in 2.5 mi East 3.5 mph - 0.00 in Snow Light Snow
3:12 PM 28.4 °F 24.6 °F 23.0 °F 80% 29.15 in 2.0 mi ENE 3.5 mph - 0.01 in Snow Light Snow
3:41 PM 26.6 °F - 23.0 °F 86% 29.17 in 4.0 mi Calm Calm - 0.01 in Snow Light Snow
3:48 PM 26.6 °F - 23.0 °F 86% 29.17 in 4.0 mi Calm Calm - 0.01 in Snow Light Snow
3:53 PM 27.0 °F - 23.0 °F 85% 29.18 in 4.0 mi Calm Calm - 0.01 in   Overcast
4:02 PM 26.6 °F - 23.0 °F 86% 29.18 in 8.0 mi Calm Calm - N/A   Overcast
4:30 PM 28.4 °F - 23.0 °F 80% 29.18 in 1.8 mi Calm Calm - 0.00 in Snow Light Snow
4:53 PM 28.0 °F - 23.0 °F 81% 29.20 in 1.2 mi Calm Calm - 0.00 in Snow Light Snow
5:08 PM 28.4 °F - 24.8 °F 86% 29.20 in 2.5 mi Calm Calm - 0.00 in Snow Light Snow
5:15 PM 28.4 °F - 24.8 °F 86% 29.20 in 4.0 mi Calm Calm - 0.00 in Snow Light Snow
5:32 PM 28.4 °F - 24.8 °F 86% 29.21 in 3.0 mi Calm Calm - 0.01 in Snow Light Snow
5:49 PM 28.4 °F - 24.8 °F 86% 29.22 in 4.0 mi Calm Calm - 0.01 in Snow Light Snow
5:53 PM 28.0 °F - 24.1 °F 85% 29.22 in 4.0 mi Calm Calm - 0.01 in Snow Light Snow
6:24 PM 28.4 °F - 24.8 °F 86% 29.23 in 9.0 mi Calm Calm - 0.00 in   Overcast
6:36 PM 28.4 °F - 24.8 °F 86% 29.24 in 3.0 mi Calm Calm - 0.00 in Snow Light Snow
6:42 PM 28.4 °F - 24.8 °F 86% 29.24 in 1.8 mi Calm Calm - 0.00 in Snow Light Snow
6:49 PM 28.4 °F - 24.8 °F 86% 29.24 in 5.0 mi Calm Calm - 0.00 in Snow Light Snow
6:53 PM 28.9 °F - 24.1 °F 82% 29.25 in 5.0 mi Calm Calm - 0.00 in Snow Light Snow
7:34 PM 28.4 °F - 24.8 °F 86% 29.26 in 2.0 mi Calm Calm - 0.00 in Snow Light Snow
7:53 PM 28.9 °F - 24.1 °F 82% 29.28 in 2.5 mi Calm Calm - 0.01 in Snow Light Snow
8:06 PM 28.4 °F - 24.8 °F 86% 29.28 in 5.0 mi Calm Calm - 0.00 in Snow Light Snow
8:39 PM 28.4 °F - 23.0 °F 80% 29.29 in 1.8 mi Calm Calm - 0.00 in Snow Light Snow
8:47 PM 28.4 °F - 24.8 °F 86% 29.30 in 2.0 mi Calm Calm - 0.00 in Snow Light Snow
8:53 PM 28.0 °F 24.2 °F 23.0 °F 81% 29.30 in 4.0 mi NE 3.5 mph - 0.00 in Snow Light Snow
9:21 PM 28.4 °F 23.3 °F 23.0 °F 80% 29.31 in 10.0 mi ENE 4.6 mph - 0.00 in   Overcast
9:29 PM 28.4 °F 24.6 °F 24.8 °F 86% 29.32 in 10.0 mi ENE 3.5 mph - 0.00 in   Overcast
9:53 PM 28.0 °F 24.2 °F 23.0 °F 81% 29.33 in 10.0 mi NNE 3.5 mph - 0.00 in   Overcast
10:16 PM 26.6 °F - 21.2 °F 80% 29.34 in 9.0 mi Calm Calm - N/A   Overcast
10:53 PM 26.1 °F - 21.0 °F 81% 29.37 in 10.0 mi Calm Calm - N/A   Overcast
11:53 PM 23.0 °F - 19.9 °F 88% 29.39 in 10.0 mi Calm Calm - N/A   Overcast